Location: 81360 Arifat, France
(43.7204°N, 2.3408°E)
Time: 04:10:47
(UTC+01:00)

BlueWalker 3 - Visible Passes

Search period start: 29 November 2023 00:00
Search period end: 09 December 2023 00:00
Orbit: 489 x 504 km, 53.2° (Epoch: 28 November)

Date Brightness Start Highest point End Pass type
(mag) Time Alt. Az. Time Alt. Az. Time Alt. Az.
29 Nov 3.4 06:07:19 24° N 06:08:02 26° NNE 06:11:16 10° ENE visible
30 Nov 3.6 05:45:43 25° NNE 05:45:43 25° NNE 05:48:42 10° ENE visible
30 Nov 1.9 07:20:23 10° NW 07:24:14 90° SE 07:28:02 10° SE visible
01 Dec 4.1 05:24:08 21° NE 05:24:08 21° NE 05:26:05 10° ENE visible
01 Dec 1.9 06:58:42 17° NW 07:01:38 89° NE 07:05:27 10° SE visible
02 Dec 4.8 05:02:35 15° ENE 05:02:35 15° ENE 05:03:28 10° ENE visible
02 Dec 1.8 06:37:09 29° NW 06:39:01 88° NE 06:42:50 10° SE visible
03 Dec 1.8 06:15:38 56° NW 06:16:24 87° NE 06:20:12 10° SE visible
04 Dec 2.1 05:54:10 69° ESE 05:54:10 69° ESE 05:57:34 10° SE visible
04 Dec 4.0 07:29:32 10° W 07:31:37 14° SW 07:33:41 10° SSW visible
05 Dec 3.5 05:32:45 32° ESE 05:32:45 32° ESE 05:34:54 10° SE visible
05 Dec 3.9 07:07:19 12° W 07:08:57 14° SW 07:11:04 10° SSW visible
06 Dec 4.7 05:11:24 16° ESE 05:11:24 16° ESE 05:12:13 10° SE visible
06 Dec 3.9 06:45:58 14° WSW 06:46:17 15° SW 06:48:27 10° SSW visible
07 Dec 4.1 06:24:40 13° SSW 06:24:40 13° SSW 06:25:47 10° SSW visible
